KE8BSM Weather Reports


Display with metric or nautical units.
time (UTC)temp
F
wind
direction
speed
MPH
gust
MPH
rain 1hr
in
rain 24hr
in
rain mn
in
humidity
%
barometer
mb
20260506002558 50 247 1.0 2.0 0.00 0.00 0.00 51 1008.3
20260506001536 50 0.0 0.0 0.00 0.00 0.00 51 1008.4
20260506000518 50 193 2.0 3.0 0.00 0.00 0.00 51 1008.5
20260505235516 50 338 2.0 3.0 0.00 0.00 0.00 51 1008.3
20260505234515 51 226 0.0 1.0 0.00 0.00 0.00 49 1008.4
20260505233516 51 213 0.0 3.0 0.00 0.00 0.00 49 1008.4
20260505232516 51 261 1.0 2.0 0.00 0.00 0.00 47 1008.4
20260505231517 51 327 1.0 2.0 0.00 0.00 0.00 51 1008.4
20260505230516 51 326 1.0 2.0 0.00 0.00 0.00 50 1008.4
20260505225516 51 202 1.0 3.0 0.00 0.00 0.00 47 1008.3
20260505224516 51 175 1.0 4.0 0.00 0.00 0.00 44 1008.5
20260505223517 51 263 1.0 3.0 0.00 0.00 0.00 48 1008.4
20260505222537 51 209 2.0 4.0 0.00 0.00 0.00 46 1008.4
20260505221517 51 245 1.0 2.0 0.00 0.00 0.00 48 1008.4
20260505220517 51 201 1.0 3.0 0.00 0.00 0.00 47 1008.3
20260505215517 51 43 3.0 5.0 0.00 0.00 0.00 47 1008.3
20260505214558 52 325 2.0 4.0 0.00 0.00 0.00 47 1008.4
20260505213537 52 182 3.0 6.0 0.00 0.00 0.00 46 1008.5
20260505212538 52 216 1.0 3.0 0.00 0.00 0.00 46 1008.5
20260505211535 52 201 3.0 5.0 0.00 0.00 0.00 47 1008.3
20260505210518 52 351 2.0 3.0 0.00 0.00 0.00 46 1008.5
20260505205515 52 287 2.0 3.0 0.00 0.00 0.00 46 1008.6
20260505204535 53 347 1.0 3.0 0.00 0.00 0.00 45 1008.4
20260505203516 53 207 3.0 5.0 0.00 0.00 0.00 44 1008.5
20260505202516 54 31 5.0 8.0 0.00 0.00 0.00 44 1008.7
20260505201516 53 215 5.0 8.0 0.00 0.00 0.00 44 1008.6
20260505200536 52 225 2.0 4.0 0.00 0.00 0.00 43 1008.7
20260505195516 52 266 1.0 3.0 0.00 0.00 0.00 47 1008.7
20260505194517 53 28 3.0 5.0 0.00 0.00 0.00 43 1008.5
20260505193537 53 251 2.0 3.0 0.00 0.00 0.00 46 1008.6
20260505192517 53 211 2.0 6.0 0.00 0.00 0.00 44 1008.5
20260505191517 53 41 6.0 9.0 0.00 0.00 0.00 44 1008.4
20260505190517 52 290 3.0 6.0 0.00 0.00 0.00 44 1008.4
20260505185517 52 265 3.0 6.0 0.00 0.00 0.00 47 1008.2
20260505184517 52 317 4.0 7.0 0.00 0.00 0.00 44 1008.3
20260505183518 52 28 5.0 9.0 0.00 0.00 0.00 44 1008.3
20260505182558 52 140 3.0 7.0 0.00 0.00 0.00 42 1008.1
20260505181518 52 237 6.0 11.0 0.00 0.00 0.00 43 1008.0
20260505180515 52 325 6.0 7.0 0.00 0.00 0.00 44 1008.3
20260505175515 52 9 4.0 6.0 0.00 0.00 0.00 43 1008.3
20260505174535 52 244 2.0 5.0 0.00 0.00 0.00 43 1008.0
20260505173515 52 60 4.0 8.0 0.00 0.00 0.00 40 1007.7
20260505172536 52 22 3.0 7.0 0.00 0.00 0.00 41 1007.6
20260505171519 52 35 4.0 6.0 0.00 0.00 0.00 43 1007.5
20260505170519 52 347 4.0 5.0 0.00 0.00 0.00 39 1007.4
20260505165519 52 6 3.0 5.0 0.00 0.00 0.00 42 1007.2
20260505164516 52 8 3.0 5.0 0.00 0.00 0.00 39 1007.3
20260505163519 52 2 4.0 9.0 0.00 0.00 0.00 39 1007.6
20260505162519 51 23 2.0 4.0 0.00 0.00 0.00 39 1007.2
20260505161520 51 238 2.0 4.0 0.00 0.00 0.00 38 1007.5
20260505160559 51 139 3.0 5.0 0.00 0.00 0.00 36 1007.5
20260505152517 51 359 4.0 10.0 0.00 0.00 0.00 40 1007.4
20260505151520 50 10 5.0 7.0 0.00 0.00 0.00 38 1007.6
20260505150540 50 320 2.0 3.0 0.00 0.00 0.00 46 1007.8
20260505140515 50 307 2.0 3.0 0.00 0.00 0.00 55 1007.3
20260505124539 48 242 2.0 4.0 0.00 0.00 0.00 72 1006.8
20260505123519 48 29 1.0 2.0 0.00 0.00 0.00 74 1005.9
20260505122519 48 224 3.0 4.0 0.00 0.00 0.00 77 1006.8
20260505121519 47 205 0.0 0.0 0.00 0.00 0.00 77 1005.6
20260505120600 47 123 2.0 4.0 0.00 0.00 0.00 78 1005.5
20260505115520 47 0.0 0.0 0.00 0.00 0.00 80 1005.1
20260505114520 47 19 2.0 3.0 0.00 0.00 0.00 81 1005.4
20260505113520 47 297 2.0 3.0 0.00 0.00 0.00 80 1005.3
20260505112541 47 288 1.0 2.0 0.00 0.00 0.00 78 1005.1
20260505111520 47 45 2.0 3.0 0.00 0.00 0.00 78 1004.6
20260505110541 47 345 1.0 3.0 0.00 0.00 0.00 79 1004.3
20260505101521 48 339 0.0 0.0 0.00 0.00 0.00 77 1003.4
20260505100521 48 312 1.0 1.0 0.00 0.00 0.00 76 1003.5
20260505095541 49 340 1.0 2.0 0.00 0.00 0.00 75 1003.5
20260505094542 50 231 1.0 2.0 0.00 0.00 0.00 72 1003.1
20260505093522 51 328 3.0 4.0 0.00 0.00 0.00 69 1002.6
20260505092522 51 235 2.0 2.0 0.00 0.00 0.00 67 1002.5
20260505091522 51 227 1.0 2.0 0.00 0.00 0.00 66 1002.3
20260505090523 52 194 1.0 2.0 0.00 0.00 0.00 65 1001.9
20260505085523 52 218 3.0 3.0 0.00 0.00 0.00 64 1001.8
20260505084523 53 228 2.0 2.0 0.00 0.00 0.00 60 1001.4
20260505083523 53 262 1.0 2.0 0.00 0.00 0.00 60 1001.6
20260505082523 54 225 1.0 2.0 0.00 0.00 0.00 60 1001.4
20260505081523 54 238 1.0 2.0 0.00 0.00 0.00 58 1001.3
20260505080603 54 309 0.0 1.0 0.00 0.00 0.00 59 1001.0
20260505075517 54 291 0.0 1.0 0.00 0.00 0.00 62 1000.9
20260505074518 54 193 3.0 4.0 0.00 0.00 0.00 56 1000.8
20260505073558 54 230 1.0 3.0 0.00 0.00 0.00 61 1001.0
20260505072515 54 209 1.0 2.0 0.00 0.00 0.00 64 1000.8
20260505071538 54 337 1.0 2.0 0.00 0.00 0.00 67 1001.0
20260505070516 54 196 3.0 4.0 0.00 0.00 0.00 71 1000.8
20260505065516 53 219 2.0 4.0 0.00 0.00 0.00 79 1000.9
20260505064516 53 286 2.0 2.0 0.00 0.00 0.00 80 1000.6
20260505063516 54 215 2.0 3.0 0.00 0.00 0.00 80 1000.8
20260505062516 54 232 2.0 3.0 0.00 0.00 0.00 81 1000.6
20260505061516 54 171 1.0 3.0 0.00 0.00 0.00 82 1000.2
20260505060517 55 275 3.0 5.0 0.00 0.00 0.00 83 1000.5
20260505055517 55 245 1.0 2.0 0.00 0.00 0.00 84 1000.7
20260505054516 55 0.0 0.0 0.00 0.00 0.00 83 1000.1
20260505053517 55 231 1.0 2.0 0.00 0.00 0.00 83 1000.3
20260505052517 56 233 1.0 2.0 0.00 0.00 0.00 83 999.9
20260505051517 56 246 2.0 3.0 0.00 0.00 0.00 82 999.9
20260505050517 57 241 1.0 3.0 0.00 0.00 0.00 82 999.7
20260505041515 59 204 4.0 7.0 0.00 0.00 0.00 76 999.5
20260505040516 59 227 4.0 8.0 0.00 0.00 0.00 75 999.3
20260505035516 60 263 4.0 6.0 0.00 0.00 0.00 74 999.4
20260505034516 62 168 7.0 10.0 0.00 0.00 0.00 71 999.4
20260505033516 63 339 0.0 1.0 0.00 0.00 0.00 72 999.3
20260505032516 63 343 1.0 3.0 0.00 0.00 0.00 70 999.0
20260505031516 64 224 1.0 3.0 0.00 0.00 0.00 69 998.6
20260505030516 64 200 2.0 4.0 0.00 0.00 0.00 68 998.4
20260505025517 64 191 2.0 4.0 0.00 0.00 0.00 67 998.0
20260505024617 64 338 2.0 3.0 0.00 0.00 0.00 68 997.7
20260505023517 64 200 2.0 3.0 0.00 0.00 0.00 68 997.5
20260505022537 64 206 3.0 6.0 0.00 0.00 0.00 67 997.2
20260505021538 65 221 2.0 4.0 0.00 0.00 0.00 65 997.6
20260505020518 65 206 3.0 5.0 0.00 0.00 0.00 65 997.5
20260505015518 66 204 3.0 6.0 0.00 0.00 0.00 63 997.3
20260505014518 67 157 3.0 6.0 0.00 0.00 0.00 63 997.4
20260505013535 68 219 5.0 9.0 0.00 0.00 0.00 62 997.5
20260505012515 69 223 4.0 7.0 0.00 0.00 0.00 60 996.8
20260505011516 70 211 3.0 6.0 0.00 0.00 0.00 58 996.6
20260505010535 70 257 5.0 8.0 0.00 0.00 0.00 58 996.5
20260505005515 70 197 4.0 5.0 0.00 0.00 0.00 57 996.4
20260505004516 70 230 5.0 7.0 0.00 0.00 0.00 56 996.6
20260505003516 71 192 2.0 3.0 0.00 0.00 0.00 54 996.5